Temp
50 51 51 51 51 51 51 51 51 51 51 51 51 53 53 49 51 47 48 50 51 56 55 55 58 59 59 57 58 58 59 59 59 59 58 58 58 55 54 52 53 52 49 49 50 51 52 53 54 55 56 57 57 56 55 55 54 55 57 57 56 55 54 55 55 57 62 66 65 62 61 61 61 60
51 51 51 52 51 51 51 51 51 51 51 52 52 52 51 53 53 48 48 50 50 54 54 54 54 57 57 58 57 58 58 57 58 58 58 57 56 54 53 52 52 52 51 49 49 51 52 52 53 53 54 55 55 55 55 55 54 56 57 55 55 56 57 57 57 59 61 61 61 61 61 61 60 60
52 51 51 51 51 51 51 51 51 51 52 51 52 51 52 51 52 51 48 49 51 51 52 52 54 54 55 57 56 55 57 57 57 56 56 58 54 54 55 52 51 51 51 50 50 52 53 52 52 52 53 54 54 53 54 55 54 54 53 52 53 55 57 58 58 59 60 60 61 61 61 60 60 60
51 51 52 52 52 51 52 51 51 51 50 51 51 51 51 50 50 51 49 49 51 50 52 51 53 54 53 55 54 54 55 56 55 56 56 56 54 56 56 53 51 51 50 50 50 51 51 52 52 51 50 51 52 52 53 53 52 52 51 51 51 52 54 55 56 58 59 59 60 60 59 60 60 60
52 52 52 51 51 51 52 51 51 51 50 50 50 50 51 50 50 52 50 49 50 50 49 51 52 53 53 54 54 53 53 53 55 55 55 55 54 55 55 56 52 49 49 49 49 49 49 50 50 47 47 49 49 50 51 51 50 50 49 48 49 50 53 54 54 54 56 57 58 57 58 58 58 58
52 51 53 52 51 51 52 51 52 52 51 51 52 51 51 51 51 50 50 50 49 49 49 50 52 52 52 52 54 51 51 52 53 54 54 55 55 54 54 55 56 50 50 48 49 49 49 48 48 48 48 48 48 49 50 50 49 48 48 48 49 52 52 51 51 50 53 55 56 56 56 56 56 57
52 52 53 52 51 51 51 51 50 50 51 51 52 50 50 51 50 51 51 49 49 50 50 48 51 50 51 50 51 53 53 52 52 53 53 53 54 54 54 54 56 50 48 48 49 49 49 49 48 48 49 48 48 48 48 49 48 47 47 48 49 49 49 48 48 48 48 51 53 54 55 54 55 57
53 53 52 52 51 51 51 50 50 49 49 49 50 49 49 49 49 49 50 50 49 48 50 48 49 50 50 51 52 52 53 52 52 52 52 53 52 53 54 54 55 52 49 48 48 49 49 49 48 48 48 49 48 48 49 48 48 47 47 48 48 48 47 47 47 47 48 49 50 51 52 53 54 56
54 53 55 54 52 51 51 49 50 49 48 49 49 49 49 49 48 48 48 49 48 48 48 48 47 47 50 51 51 51 50 51 51 51 50 51 51 50 51 52 54 50 49 49 49 48 48 48 49 49 48 48 48 48 48 48 48 48 48 48 48 47 47 47 47 47 47 46 46 48 50 50 52 55
54 54 54 53 53 52 53 51 50 49 50 49 50 50 49 49 47 47 47 47 47 48 47 48 48 46 47 48 49 50 49 48 48 49 50 50 50 49 49 50 52 53 53 51 51 49 50 50 49 48 49 48 48 48 48 48 48 48 48 48 47 47 46 47 46 46 46 46 46 44 46 49 51 55
54 54 54 54 53 54 54 53 52 51 49 50 49 49 48 47 47 46 46 46 46 47 47 46 45 47 46 46 47 49 48 49 48 45 46 47 49 48 47 47 50 51 50 49 47 49 49 49 50 49 48 48 48 48 47 48 48 48 48 47 46 46 46 46 46 46 46 46 46 46 45 45 49 52
54 55 54 55 55 55 55 55 53 53 52 51 50 49 48 47 48 47 46 46 46 46 46 46 46 44 45 46 46 47 46 46 46 46 44 43 44 45 46 47 47 49 48 48 49 49 49 49 49 48 48 48 47 47 48 49 49 49 48 46 46 46 46 45 45 45 45 46 46 46 46 46 45 48
54 54 55 55 55 55 56 53 53 53 52 52 51 48 49 48 47 47 47 46 45 45 45 45 43 44 45 44 43 44 44 43 42 43 43 42 44 44 44 47 49 48 47 47 48 48 48 48 49 50 50 51 50 51 49 50 49 48 46 46 46 46 45 44 44 44 45 45 45 44 45 45 45 45
53 54 55 55 57 55 55 51 48 47 48 51 53 51 49 49 48 47 46 46 47 47 46 46 45 45 45 43 43 43 43 43 43 42 42 41 42 43 43 45 47 48 46 45 44 46 48 48 48 50 49 50 50 51 51 52 50 48 46 46 46 45 45 44 44 44 44 45 45 44 44 44 44 44
54 54 55 55 55 54 53 51 45 44 45 45 45 46 47 48 50 48 46 45 45 46 45 43 44 44 43 43 42 42 42 42 41 41 41 41 41 40 39 39 43 46 45 43 42 43 47 48 46 48 49 49 50 50 51 47 47 46 46 45 45 45 45 44 44 44 44 44 44 44 44 44 44 44
53 53 53 53 54 54 54 51 49 45 42 41 41 40 40 40 40 43 47 46 44 43 44 43 44 43 43 42 42 42 42 42 41 41 41 40 40 39 39 39 38 44 45 41 40 41 46 47 46 46 47 48 49 50 48 46 46 46 46 45 45 45 44 44 44 44 44 44 43 43 43 43 43 43
52 52 52 52 52 53 54 51 50 48 45 42 42 42 42 42 41 38 39 41 46 44 45 45 42 42 42 41 41 42 42 42 40 41 40 40 39 39 38 39 40 42 44 41 40 39 43 45 44 44 46 48 48 49 47 46 45 45 45 45 44 44 44 44 43 43 42 42 42 43 43 42 42 42
51 51 51 51 51 52 52 51 50 49 48 47 46 46 46 45 43 41 39 38 39 43 45 44 44 42 42 43 41 43 43 40 40 40 39 40 39 38 38 40 40 42 43 40 39 38 42 45 43 43 46 48 48 48 47 45 45 45 45 45 44 44 44 44 43 42 42 42 42 42 42 42 42 42
48 48 49 49 49 49 49 50 49 49 48 47 45 44 43 43 43 44 44 43 43 43 42 43 43 42 42 42 42 42 42 41 41 41 40 40 39 39 39 39 40 41 44 42 40 36 41 44 42 43 45 47 47 48 46 45 45 44 44 44 44 44 44 44 44 43 42 42 42 42 43 42 41 41
46 47 47 46 45 45 46 45 43 46 48 47 45 43 43 42 42 42 42 40 41 43 42 43 42 42 41 40 42 42 42 41 41 41 41 40 39 38 37 37 39 39 43 43 40 37 39 43 41 42 46 46 45 47 48 46 45 45 44 43 44 44 44 44 44 44 43 43 43 43 43 42 41 41
45 45 45 45 44 44 44 41 40 41 44 46 44 43 42 41 41 41 41 40 39 38 38 39 39 38 38 38 38 38 38 40 41 40 38 38 39 36 35 37 37 38 41 42 42 40 38 42 42 41 44 45 44 46 47 49 45 44 43 43 44 44 44 44 44 43 43 43 43 43 43 42 41 41
45 48 47 46 45 45 44 39 40 41 45 45 44 43 42 41 40 41 39 39 39 38 38 38 38 38 38 38 38 38 38 38 40 39 37 39 38 36 36 34 36 38 40 42 44 40 39 42 43 41 44 44 44 45 47 48 46 44 45 45 44 43 43 43 43 43 43 43 44 44 43 42 42 45
42 43 45 45 45 46 42 38 39 39 43 43 42 41 40 40 39 40 36 38 39 39 40 39 39 40 39 39 39 40 38 37 40 40 39 39 37 36 36 36 36 34 37 42 44 39 40 40 42 42 39 38 43 46 47 47 48 49 49 49 48 44 43 43 43 43 43 43 43 43 42 42 42 45
41 42 43 42 38 38 37 37 37 38 40 41 40 40 40 39 40 39 37 40 39 37 37 36 37 37 37 37 38 38 38 39 40 40 40 39 39 37 37 36 36 33 36 42 44 39 41 42 40 44 41 36 34 42 45 46 47 48 48 48 47 45 44 44 44 43 43 43 43 43 42 42 41 44
41 41 41 41 39 37 37 37 37 37 37 38 39 39 39 39 40 37 38 38 37 37 37 37 37 37 37 37 37 38 38 39 40 41 40 40 40 39 37 37 36 36 39 42 42 42 38 40 39 41 40 40 40 40 43 44 46 46 47 47 46 48 47 47 46 48 45 44 43 42 42 42 41 43
41 41 41 41 38 37 37 37 37 37 38 38 40 38 36 35 35 38 38 37 37 36 36 36 36 37 37 37 37 38 38 39 40 40 40 40 40 40 40 38 37 35 37 43 40 41 39 37 39 38 38 37 38 40 38 40 44 46 47 46 45 44 44 44 45 46 48 49 49 46 44 41 41 41
40 40 40 41 38 37 37 37 37 36 36 37 37 36 36 36 36 37 38 37 36 36 36 36 36 36 36 36 36 36 37 38 39 39 40 40 40 40 41 41 41 40 40 42 43 42 40 38 40 38 36 38 36 37 37 36 40 45 44 45 45 45 45 44 43 45 46 46 47 43 41 41 40 40
39 39 41 40 36 37 37 36 36 36 37 37 36 36 36 36 36 37 37 36 36 35 35 35 35 35 36 35 35 36 37 37 38 38 38 39 39 39 40 40 40 41 41 41 41 42 40 39 39 40 39 37 35 33 33 39 40 41 41 44 46 47 47 47 46 45 46 46 46 46 45 44 44 44
40 38 36 36 37 37 37 36 37 37 36 35 36 35 36 37 37 36 36 35 35 35 34 34 34 34 35 35 35 36 37 37 38 38 38 39 39 39 39 39 39 40 40 40 41 41 41 40 39 40 39 39 36 36 36 36 38 38 40 40 40 44 46 46 46 45 45 45 45 45 45 44 42 42
36 36 36 36 36 37 37 38 38 37 37 36 35 35 36 36 36 36 36 35 34 33 33 33 33 34 35 35 36 36 37 36 36 36 36 37 37 38 38 37 38 40 41 41 41 42 41 41 40 39 38 38 38 36 37 36 36 39 39 39 40 42 44 45 45 45 43 43 44 44 44 43 41 41
38 38 38 37 36 36 35 35 35 35 35 36 35 35 35 35 35 35 35 35 34 33 33 33 33 34 35 36 36 35 36 35 36 38 36 36 36 37 38 36 35 37 40 42 42 41 42 41 41 40 36 36 37 38 38 38 36 37 38 40 39 35 40 43 44 45 45 45 44 43 43 42 41 40
38 37 36 36 36 36 36 36 36 35 34 33 33 35 34 35 34 34 34 35 34 34 34 34 34 35 35 35 35 36 36 36 37 38 37 36 36 37 36 34 33 35 36 39 41 41 39 41 41 41 40 38 36 37 39 37 36 37 38 39 39 40 41 40 41 43 44 43 41 42 43 42 42 42
36 36 36 35 34 33 31 31 32 33 33 32 33 32 34 34 34 34 34 34 34 34 34 34 34 34 35 35 35 35 35 36 36 37 36 37 35 36 35 33 33 33 33 35 37 39 40 41 42 41 41 40 40 39 36 33 36 38 37 38 38 38 39 40 41 41 42 40 40 40 40 42 42 43
34 31 31 30 31 31 31 30 30 29 29 29 30 31 31 31 33 33 33 33 34 35 34 35 34 34 34 34 34 34 34 35 36 36 35 35 35 33 33 32 33 34 34 34 35 37 39 40 40 41 41 40 41 40 39 36 35 37 38 39 38 37 39 40 40 42 41 40 39 38 39 40 41 41
34 32 32 28 27 26 29 29 30 28 28 29 28 30 30 31 31 30 32 33 34 34 35 35 35 35 34 33 34 33 33 33 34 35 36 35 35 33 33 32 32 33 34 34 34 36 37 37 37 35 36 37 37 40 42 41 37 37 38 38 39 38 38 39 39 40 40 39 39 37 37 39 40 41
30 31 31 28 26 26 28 29 27 27 28 27 29 28 30 31 31 31 32 34 35 35 35 35 34 34 34 34 33 33 33 33 33 34 34 34 33 33 33 33 33 33 34 34 34 36 36 35 34 32 31 31 31 31 34 41 41 39 36 36 39 39 39 39 39 39 38 38 38 37 36 36 38 39
28 28 29 30 29 28 29 29 28 29 30 30 29 31 30 31 32 33 34 33 34 34 35 35 34 34 34 34 34 33 33 33 33 33 33 33 33 33 32 32 33 33 33 34 35 35 35 34 34 32 30 30 29 29 32 37 38 41 41 37 38 39 37 36 36 36 37 37 37 36 36 37 37 37
31 30 32 32 33 32 30 29 27 28 30 30 30 31 31 32 33 33 34 34 34 35 35 35 35 35 34 34 33 33 33 34 33 33 33 33 32 32 32 32 32 33 33 34 35 35 35 34 33 33 32 29 28 29 30 36 37 38 39 39 36 37 36 35 35 35 35 36 35 35 36 36 34 35
33 32 31 32 32 32 31 29 28 29 32 31 31 31 31 32 32 33 33 34 34 34 35 35 34 34 34 34 34 33 32 32 32 32 32 33 33 32 32 32 32 33 33 33 34 35 35 33 33 33 32 31 30 32 34 33 33 37 38 39 38 36 37 36 35 35 35 34 34 33 33 34 35 35
32 33 33 33 33 32 33 30 29 30 30 31 31 32 31 31 31 31 32 33 34 34 34 34 34 34 34 34 33 33 33 32 32 32 32 32 32 32 32 33 32 32 32 32 32 33 34 34 34 34 34 34 35 36 36 35 36 37 38 38 38 37 36 36 35 35 35 34 34 34 33 34 33 34
32 33 31 32 33 33 32 31 32 30 31 31 31 31 31 31 31 31 33 34 34 34 34 34 34 34 33 34 33 33 32 32 33 33 33 33 32 32 32 32 32 33 31 31 32 32 33 35 36 35 36 36 36 35 33 31 31 34 36 38 38 37 37 37 36 35 35 34 34 34 33 33 33 33
33 32 32 32 33 33 32 32 32 31 30 31 30 30 30 31 32 32 33 33 34 33 34 34 34 34 34 34 34 33 32 32 32 32 32 32 32 32 33 33 32 32 32 31 32 33 36 37 36 35 35 34 33 31 30 31 31 34 36 37 36 37 36 36 36 37 37 35 34 33 33 33 34 32
32 32 32 31 29 31 31 30 31 30 29 30 30 30 30 31 32 33 33 33 33 33 33 33 34 34 33 34 34 33 32 32 32 32 32 33 32 32 32 32 33 33 33 33 34 35 36 36 35 35 34 34 33 33 31 32 33 34 35 36 34 34 35 36 37 36 36 37 36 36 35 35 33 31
32 32 32 31 29 28 29 30 31 30 29 29 30 30 31 31 31 32 32 32 32 32 33 33 33 33 33 33 33 33 33 33 33 32 32 33 33 33 32 33 33 33 33 33 34 35 36 37 37 35 33 33 34 33 32 33 33 35 35 34 33 33 33 33 34 35 35 35 35 36 36 36 36 36
31 31 30 25 24 22 24 26 28 29 29 29 30 30 30 30 30 30 30 31 31 32 32 32 32 32 32 32 32 31 33 34 34 33 33 33 33 33 33 33 33 33 33 34 33 34 36 36 37 37 35 34 34 34 34 34 34 34 34 33 32 33 33 33 33 33 33 33 34 35 35 35 35 34
MSLP
1021.98 1021.98 1021.98 1022.06 1022.14 1022.26 1022.30 1022.26 1022.30 1022.34 1022.38 1022.42 1022.38 1022.14 1021.90 1021.90 1022.06 1022.54 1023.30 1023.82 1023.70 1023.74 1023.86 1023.78 1023.58 1023.54 1023.42 1023.30 1023.10 1022.90 1022.74 1022.74 1022.54 1022.46 1022.42 1022.42 1022.42 1022.34 1022.14 1022.06 1021.98 1021.90 1021.82 1021.70 1021.58 1021.46 1021.38 1021.26 1021.18 1021.14 1021.10 1021.02 1020.94 1020.90 1020.90 1020.94 1020.86 1020.70 1020.54 1020.46 1020.42 1020.42 1020.42 1020.42 1020.38 1020.34 1020.26 1020.26 1020.26 1020.38 1020.58 1020.74 1021.06 1021.34
1021.94 1022.02 1022.18 1022.18 1022.26 1022.54 1022.30 1022.42 1022.50 1022.42 1022.46 1022.46 1022.50 1022.46 1022.46 1022.18 1022.10 1022.54 1023.06 1023.78 1024.14 1023.94 1024.18 1024.18 1024.10 1023.82 1023.74 1023.54 1023.38 1023.26 1023.14 1023.06 1022.86 1022.78 1022.74 1022.70 1022.78 1022.62 1022.46 1022.46 1022.42 1022.34 1022.26 1022.14 1021.98 1021.82 1021.70 1021.62 1021.50 1021.38 1021.30 1021.22 1021.18 1021.06 1020.86 1020.78 1020.78 1020.66 1020.50 1020.42 1020.38 1020.30 1020.26 1020.18 1020.14 1020.14 1020.10 1020.10 1020.06 1020.10 1020.18 1020.38 1020.58 1020.86
1021.98 1021.98 1022.06 1022.30 1022.42 1022.50 1022.46 1022.58 1022.62 1022.70 1022.62 1022.70 1022.74 1022.74 1022.62 1022.46 1022.30 1022.38 1022.70 1023.18 1024.22 1024.46 1024.26 1024.34 1024.30 1024.18 1024.02 1023.86 1023.70 1023.58 1023.46 1023.38 1023.26 1023.18 1023.10 1023.02 1023.02 1022.82 1022.78 1022.78 1022.78 1022.70 1022.62 1022.50 1022.38 1022.22 1022.10 1021.94 1021.82 1021.70 1021.54 1021.38 1021.22 1021.06 1020.90 1020.74 1020.66 1020.66 1020.62 1020.50 1020.42 1020.30 1020.18 1020.10 1019.98 1019.94 1019.94 1019.90 1019.90 1019.90 1019.90 1020.06 1020.26 1020.38
1022.14 1022.06 1022.14 1022.26 1022.34 1022.58 1022.58 1022.66 1022.78 1022.82 1022.98 1022.90 1022.82 1022.90 1022.86 1022.94 1022.86 1022.66 1022.90 1023.22 1023.70 1024.42 1024.38 1024.42 1024.34 1024.22 1024.10 1024.02 1023.86 1023.86 1023.74 1023.62 1023.50 1023.46 1023.38 1023.34 1023.14 1023.02 1023.02 1022.98 1022.98 1022.94 1022.90 1022.78 1022.66 1022.54 1022.42 1022.26 1022.06 1021.94 1021.78 1021.58 1021.38 1021.26 1021.06 1020.94 1020.82 1020.70 1020.62 1020.58 1020.50 1020.38 1020.26 1020.18 1020.06 1019.94 1019.82 1019.78 1019.74 1019.78 1019.78 1019.86 1019.94 1020.06
1022.18 1022.06 1022.10 1022.22 1022.38 1022.50 1022.30 1022.66 1022.90 1022.94 1023.10 1023.10 1023.14 1023.18 1023.06 1023.06 1023.18 1022.86 1022.94 1023.10 1023.78 1024.26 1024.74 1024.50 1024.42 1024.34 1024.18 1024.06 1024.10 1024.02 1023.98 1023.86 1023.74 1023.62 1023.58 1023.50 1023.38 1023.34 1023.26 1023.14 1023.06 1023.06 1022.98 1022.90 1022.82 1022.70 1022.58 1022.42 1022.26 1022.10 1021.94 1021.74 1021.58 1021.42 1021.26 1021.14 1021.02 1020.90 1020.78 1020.66 1020.54 1020.42 1020.30 1020.18 1020.10 1020.02 1019.90 1019.78 1019.66 1019.62 1019.62 1019.66 1019.70 1019.78
1022.22 1022.18 1022.14 1022.26 1022.42 1022.66 1022.34 1022.58 1022.58 1022.78 1022.90 1022.86 1022.94 1023.10 1022.90 1022.98 1023.02 1023.10 1022.86 1023.42 1023.42 1023.58 1024.38 1024.42 1024.58 1024.42 1024.34 1024.22 1024.26 1024.22 1024.14 1024.02 1023.94 1023.82 1023.74 1023.62 1023.58 1023.58 1023.46 1023.30 1023.14 1023.14 1023.06 1022.98 1022.90 1022.78 1022.66 1022.54 1022.38 1022.22 1022.06 1021.90 1021.78 1021.62 1021.46 1021.30 1021.18 1021.06 1020.90 1020.74 1020.58 1020.42 1020.30 1020.22 1020.10 1020.02 1019.94 1019.82 1019.66 1019.58 1019.50 1019.46 1019.46 1019.46
1022.22 1022.22 1022.18 1022.26 1022.42 1022.62 1022.42 1022.62 1022.82 1023.10 1022.90 1023.10 1022.78 1023.14 1023.30 1023.06 1023.26 1023.18 1022.90 1022.90 1023.22 1023.26 1023.78 1024.58 1024.46 1024.54 1024.42 1024.38 1024.46 1024.38 1024.30 1024.26 1024.14 1024.02 1023.94 1023.82 1023.78 1023.66 1023.58 1023.46 1023.30 1023.22 1023.18 1023.10 1022.98 1022.86 1022.74 1022.62 1022.46 1022.30 1022.14 1021.98 1021.86 1021.70 1021.58 1021.42 1021.26 1021.14 1020.98 1020.82 1020.66 1020.46 1020.30 1020.18 1020.06 1019.94 1019.90 1019.82 1019.74 1019.62 1019.54 1019.42 1019.30 1019.26
1022.06 1022.02 1022.18 1022.30 1022.50 1022.58 1022.38 1022.58 1022.78 1023.14 1023.18 1023.02 1023.18 1023.42 1023.70 1023.54 1023.50 1023.58 1023.34 1023.18 1023.18 1023.86 1023.34 1024.30 1024.62 1024.66 1024.54 1024.46 1024.50 1024.50 1024.38 1024.30 1024.18 1024.14 1024.10 1023.98 1023.98 1023.86 1023.74 1023.58 1023.38 1023.26 1023.22 1023.14 1023.06 1022.94 1022.82 1022.70 1022.54 1022.38 1022.18 1022.02 1021.86 1021.74 1021.58 1021.42 1021.26 1021.14 1020.98 1020.82 1020.66 1020.50 1020.30 1020.10 1019.94 1019.82 1019.74 1019.70 1019.66 1019.58 1019.50 1019.38 1019.26 1019.14
1021.90 1021.90 1021.86 1022.06 1022.38 1022.50 1022.30 1022.62 1022.66 1023.02 1022.86 1023.38 1023.34 1023.46 1023.94 1023.94 1024.14 1024.14 1024.02 1023.86 1023.74 1023.74 1023.74 1024.22 1024.74 1024.78 1024.66 1024.66 1024.62 1024.66 1024.54 1024.30 1024.26 1024.22 1024.18 1024.02 1024.02 1023.98 1023.90 1023.70 1023.50 1023.30 1023.22 1023.14 1023.06 1022.98 1022.86 1022.74 1022.62 1022.42 1022.26 1022.06 1021.86 1021.70 1021.54 1021.38 1021.22 1021.06 1020.94 1020.78 1020.66 1020.50 1020.30 1020.14 1019.94 1019.78 1019.66 1019.54 1019.50 1019.46 1019.38 1019.30 1019.22 1019.10
1021.94 1021.82 1021.78 1021.90 1022.18 1022.30 1022.14 1022.26 1022.50 1022.82 1022.78 1023.26 1023.14 1023.38 1023.78 1024.02 1024.06 1023.98 1024.26 1024.34 1024.18 1024.02 1024.22 1024.30 1024.42 1024.82 1024.78 1024.66 1024.66 1024.66 1024.66 1024.46 1024.22 1024.02 1024.06 1024.02 1023.98 1023.90 1023.74 1023.62 1023.50 1023.30 1023.18 1023.06 1022.94 1022.86 1022.70 1022.62 1022.54 1022.38 1022.22 1022.02 1021.82 1021.66 1021.50 1021.34 1021.18 1021.02 1020.86 1020.74 1020.58 1020.42 1020.26 1020.10 1019.90 1019.70 1019.54 1019.34 1019.26 1019.18 1019.14 1019.10 1019.02 1018.90
1021.90 1021.94 1021.94 1021.94 1021.94 1021.86 1021.94 1022.06 1022.22 1022.66 1022.90 1022.82 1022.94 1023.14 1023.46 1023.78 1023.74 1023.86 1023.98 1024.10 1024.06 1024.10 1024.10 1024.42 1024.66 1024.66 1024.90 1024.98 1024.66 1024.74 1024.82 1024.70 1024.78 1024.78 1024.14 1023.66 1023.70 1023.94 1023.90 1023.54 1023.30 1023.26 1023.18 1023.10 1023.10 1023.02 1022.90 1022.74 1022.50 1022.30 1022.10 1021.94 1021.74 1021.58 1021.42 1021.26 1021.06 1020.90 1020.78 1020.62 1020.50 1020.34 1020.18 1019.98 1019.82 1019.62 1019.42 1019.26 1019.10 1018.94 1018.86 1018.82 1018.82 1018.74
1021.50 1021.50 1021.70 1021.74 1021.70 1021.58 1021.70 1021.86 1022.26 1022.54 1022.46 1022.78 1022.82 1023.46 1023.46 1023.54 1023.42 1023.54 1023.78 1023.86 1024.02 1024.10 1024.26 1024.26 1024.22 1024.74 1024.74 1024.86 1025.10 1025.06 1024.90 1024.86 1024.86 1025.10 1025.22 1024.82 1024.10 1023.78 1023.82 1023.86 1023.50 1023.18 1023.22 1023.10 1022.90 1022.78 1022.66 1022.46 1022.30 1022.14 1021.98 1021.82 1021.62 1021.46 1021.26 1021.06 1020.94 1020.78 1020.66 1020.54 1020.42 1020.22 1020.02 1019.90 1019.78 1019.58 1019.42 1019.22 1019.06 1018.90 1018.74 1018.62 1018.54 1018.54
1021.38 1021.38 1021.34 1021.34 1021.34 1021.54 1021.70 1021.54 1021.90 1022.10 1022.18 1022.34 1022.66 1023.22 1023.22 1023.18 1023.18 1023.46 1023.74 1023.86 1024.02 1024.26 1024.34 1024.46 1024.86 1024.54 1024.66 1024.94 1025.06 1024.90 1024.90 1025.18 1025.38 1025.38 1025.42 1025.18 1024.86 1024.54 1023.98 1023.50 1023.46 1023.42 1023.30 1023.14 1023.02 1022.82 1022.70 1022.38 1022.10 1021.94 1021.78 1021.62 1021.50 1021.30 1021.22 1020.94 1020.74 1020.58 1020.50 1020.42 1020.26 1020.10 1019.98 1019.86 1019.70 1019.54 1019.34 1019.18 1019.02 1018.86 1018.70 1018.50 1018.34 1018.26
1021.26 1021.22 1021.18 1021.18 1021.18 1021.22 1021.34 1021.50 1021.62 1021.86 1022.06 1022.10 1022.18 1022.54 1022.98 1022.98 1023.10 1023.30 1023.50 1023.70 1023.90 1024.06 1024.14 1024.42 1024.54 1024.22 1024.34 1024.86 1025.14 1025.26 1025.34 1025.42 1025.38 1025.34 1025.34 1025.18 1024.78 1024.54 1024.10 1023.46 1023.42 1023.42 1023.46 1023.26 1022.82 1022.66 1022.62 1022.50 1022.10 1021.90 1021.74 1021.50 1021.46 1021.26 1021.02 1020.86 1020.70 1020.54 1020.46 1020.30 1020.10 1019.98 1019.86 1019.74 1019.58 1019.42 1019.22 1019.06 1018.86 1018.66 1018.50 1018.34 1018.18 1018.02
1021.02 1021.14 1021.22 1021.26 1021.34 1021.46 1021.70 1021.82 1021.98 1022.06 1022.26 1022.38 1022.50 1022.82 1023.06 1023.06 1022.98 1023.22 1023.54 1023.82 1024.14 1024.14 1024.38 1024.70 1024.82 1024.70 1024.54 1024.78 1025.22 1025.30 1025.46 1025.46 1025.54 1025.46 1025.42 1025.30 1024.90 1024.70 1024.62 1023.94 1023.18 1023.46 1023.54 1023.34 1023.18 1022.58 1022.46 1022.38 1022.14 1021.94 1021.74 1021.54 1021.38 1021.18 1020.94 1020.78 1020.62 1020.46 1020.38 1020.22 1020.02 1019.86 1019.70 1019.58 1019.42 1019.26 1019.10 1018.94 1018.74 1018.54 1018.34 1018.14 1017.94 1017.78
1020.82 1020.86 1020.94 1021.06 1021.10 1021.22 1021.38 1021.74 1022.14 1022.46 1022.46 1022.54 1022.86 1023.14 1023.34 1023.42 1023.58 1023.62 1023.54 1023.78 1024.14 1024.30 1024.42 1024.70 1024.78 1024.86 1024.78 1024.98 1025.18 1025.26 1025.38 1025.34 1025.42 1025.42 1025.46 1025.34 1025.22 1025.02 1024.78 1024.66 1024.34 1023.46 1023.70 1023.70 1023.30 1022.66 1022.34 1022.30 1022.18 1021.86 1021.66 1021.54 1021.38 1021.18 1020.94 1020.74 1020.50 1020.34 1020.26 1020.10 1019.94 1019.78 1019.62 1019.50 1019.34 1019.14 1018.98 1018.82 1018.62 1018.42 1018.18 1017.94 1017.70 1017.50
1020.78 1020.74 1020.78 1020.98 1021.10 1021.18 1021.38 1021.78 1022.14 1022.18 1022.58 1022.90 1023.10 1023.42 1023.62 1023.86 1023.98 1024.02 1024.10 1024.10 1024.06 1024.26 1024.46 1024.62 1024.86 1024.94 1024.94 1025.06 1025.18 1025.38 1025.46 1025.54 1025.58 1025.42 1025.34 1025.26 1025.30 1025.22 1025.14 1024.70 1024.38 1023.90 1023.86 1023.90 1023.54 1022.86 1022.22 1022.26 1022.14 1021.98 1021.54 1021.42 1021.26 1021.02 1020.82 1020.58 1020.34 1020.14 1020.10 1019.98 1019.82 1019.66 1019.50 1019.34 1019.26 1019.06 1018.90 1018.70 1018.50 1018.30 1018.10 1017.82 1017.54 1017.30
1020.74 1020.74 1020.78 1020.98 1021.18 1021.42 1021.58 1021.86 1022.18 1022.42 1022.74 1023.14 1023.42 1023.70 1023.94 1024.14 1024.34 1024.42 1024.46 1024.50 1024.62 1024.58 1024.62 1024.78 1024.86 1025.14 1025.14 1025.22 1025.30 1025.34 1025.50 1025.62 1025.54 1025.50 1025.38 1025.34 1025.26 1025.14 1024.94 1024.70 1024.62 1024.14 1023.98 1024.02 1023.62 1023.14 1022.26 1022.14 1022.14 1021.86 1021.46 1021.26 1021.06 1020.90 1020.66 1020.46 1020.18 1019.98 1019.90 1019.78 1019.66 1019.50 1019.34 1019.18 1019.06 1018.90 1018.74 1018.54 1018.30 1018.10 1017.90 1017.66 1017.42 1017.14
1020.94 1020.90 1021.06 1021.22 1021.46 1021.74 1021.90 1022.14 1022.30 1022.50 1022.90 1023.14 1023.50 1023.78 1024.10 1024.34 1024.54 1024.66 1024.74 1024.78 1024.82 1024.86 1024.98 1025.06 1025.10 1025.18 1025.26 1025.30 1025.38 1025.38 1025.46 1025.54 1025.50 1025.50 1025.42 1025.30 1025.14 1025.06 1024.90 1024.70 1024.38 1024.10 1023.82 1023.70 1023.70 1023.18 1022.34 1022.22 1022.10 1021.66 1021.34 1021.10 1020.94 1020.74 1020.42 1020.18 1019.94 1019.78 1019.70 1019.58 1019.46 1019.30 1019.10 1018.90 1018.78 1018.66 1018.54 1018.30 1018.10 1017.82 1017.58 1017.38 1017.18 1016.94
1021.42 1021.38 1021.42 1021.62 1021.90 1022.10 1022.26 1022.42 1022.42 1022.58 1022.86 1023.02 1023.34 1023.78 1024.26 1024.50 1024.78 1024.98 1025.10 1025.06 1024.98 1025.10 1025.18 1025.18 1025.14 1025.18 1025.26 1025.34 1025.38 1025.38 1025.38 1025.42 1025.42 1025.38 1025.30 1025.18 1025.10 1024.98 1024.70 1024.30 1023.98 1024.02 1023.58 1023.54 1023.42 1023.10 1022.50 1022.26 1022.18 1021.54 1021.14 1020.94 1020.70 1020.46 1020.22 1019.90 1019.66 1019.58 1019.54 1019.46 1019.34 1019.14 1018.94 1018.78 1018.54 1018.38 1018.18 1018.02 1017.82 1017.58 1017.38 1017.14 1016.90 1016.62
1021.94 1021.98 1021.98 1022.02 1022.22 1022.30 1022.46 1022.66 1022.58 1022.78 1022.78 1023.10 1023.42 1023.78 1024.06 1024.50 1024.70 1024.94 1025.10 1025.18 1025.26 1025.26 1025.18 1025.18 1025.18 1025.22 1025.26 1025.30 1025.30 1025.30 1025.30 1025.30 1025.26 1025.26 1025.26 1024.86 1024.82 1024.86 1024.50 1024.02 1023.90 1023.58 1023.50 1023.18 1023.02 1022.90 1022.46 1021.98 1021.98 1021.42 1020.98 1020.74 1020.50 1020.22 1019.94 1019.58 1019.46 1019.50 1019.42 1019.26 1019.14 1018.98 1018.82 1018.62 1018.42 1018.18 1017.98 1017.74 1017.54 1017.34 1017.10 1016.86 1016.62 1016.34
1022.34 1022.34 1022.38 1022.30 1022.34 1022.42 1022.66 1022.78 1022.78 1022.86 1022.86 1023.14 1023.46 1023.66 1023.90 1024.14 1024.46 1024.86 1025.10 1025.18 1025.22 1025.26 1025.18 1025.26 1025.22 1025.18 1025.26 1025.22 1025.18 1025.10 1025.06 1025.06 1025.10 1025.06 1024.94 1024.66 1024.86 1024.78 1024.54 1024.26 1023.86 1023.54 1023.34 1022.90 1022.74 1022.74 1022.18 1021.86 1021.70 1021.34 1020.62 1020.42 1020.18 1020.02 1019.70 1019.46 1019.38 1019.34 1019.18 1019.02 1018.90 1018.74 1018.58 1018.38 1018.18 1018.02 1017.78 1017.54 1017.30 1017.10 1016.90 1016.70 1016.50 1016.10
1022.90 1022.86 1022.82 1022.70 1022.70 1022.78 1022.94 1022.94 1022.94 1022.98 1022.98 1023.22 1023.50 1023.78 1023.90 1024.18 1024.50 1024.90 1025.22 1025.18 1025.02 1024.98 1024.90 1024.90 1025.02 1024.86 1024.90 1024.98 1024.98 1024.90 1024.90 1024.86 1024.82 1024.82 1024.82 1024.78 1024.82 1024.62 1024.38 1024.18 1023.90 1023.58 1023.02 1022.78 1022.66 1022.62 1021.82 1021.82 1021.34 1021.30 1020.66 1020.30 1019.74 1019.70 1019.42 1019.42 1019.34 1019.14 1018.94 1018.82 1018.66 1018.46 1018.30 1018.14 1017.98 1017.78 1017.58 1017.34 1017.14 1016.98 1016.78 1016.58 1016.42 1016.06
1023.22 1023.26 1023.26 1023.26 1023.22 1023.26 1023.34 1023.42 1023.42 1023.38 1023.38 1023.54 1023.98 1024.06 1024.14 1024.34 1024.66 1025.10 1025.14 1025.14 1025.22 1025.18 1025.26 1025.18 1025.30 1025.22 1025.22 1025.18 1025.10 1024.98 1024.86 1024.74 1024.66 1024.58 1024.58 1024.58 1024.54 1024.50 1024.30 1024.14 1024.06 1023.90 1023.22 1022.78 1022.74 1022.58 1021.86 1021.86 1021.38 1021.34 1021.38 1021.06 1019.98 1019.42 1019.42 1019.14 1019.06 1018.94 1018.82 1018.54 1018.38 1018.18 1017.98 1017.86 1017.70 1017.50 1017.34 1017.14 1016.98 1016.82 1016.62 1016.46 1016.34 1016.06
1023.14 1023.38 1023.54 1023.66 1023.70 1023.66 1023.70 1023.82 1023.90 1023.94 1023.98 1024.06 1024.26 1024.42 1024.66 1024.86 1025.06 1025.18 1024.98 1025.10 1025.26 1025.18 1025.14 1025.18 1025.18 1025.10 1025.14 1025.10 1025.06 1024.98 1024.82 1024.70 1024.54 1024.42 1024.34 1024.30 1024.26 1024.26 1024.06 1023.78 1023.58 1023.26 1022.90 1022.70 1022.62 1022.54 1022.02 1021.82 1021.58 1021.30 1020.98 1020.74 1020.06 1019.58 1018.98 1019.06 1018.82 1018.70 1018.50 1018.34 1018.06 1017.86 1017.78 1017.62 1017.46 1017.22 1017.02 1016.86 1016.74 1016.62 1016.42 1016.26 1016.14 1016.06
1023.86 1023.78 1023.78 1023.90 1023.94 1023.90 1023.94 1024.02 1024.14 1024.22 1024.34 1024.46 1024.58 1024.86 1024.98 1025.06 1025.06 1025.06 1025.22 1025.30 1025.26 1025.26 1025.26 1025.30 1025.30 1025.22 1025.18 1025.14 1025.02 1024.90 1024.74 1024.62 1024.46 1024.34 1024.22 1024.10 1024.02 1023.90 1023.74 1023.62 1023.38 1023.06 1022.62 1022.46 1022.58 1022.46 1022.22 1021.74 1021.66 1021.30 1020.94 1020.74 1019.82 1019.90 1019.30 1018.98 1018.74 1018.38 1018.18 1018.02 1017.94 1017.78 1017.66 1017.50 1017.34 1017.10 1016.82 1016.58 1016.46 1016.34 1016.26 1016.10 1015.94 1015.82
1023.70 1023.98 1024.10 1024.14 1024.14 1024.14 1024.22 1024.30 1024.34 1024.42 1024.54 1024.62 1024.78 1024.86 1024.94 1025.06 1025.18 1025.22 1025.26 1025.34 1025.38 1025.38 1025.38 1025.42 1025.34 1025.26 1025.18 1025.10 1024.94 1024.82 1024.62 1024.42 1024.34 1024.14 1024.02 1023.90 1023.74 1023.54 1023.34 1023.18 1023.06 1022.82 1022.42 1022.34 1022.34 1022.22 1022.10 1021.62 1021.46 1021.38 1020.94 1020.70 1020.30 1019.74 1019.70 1019.10 1018.42 1018.18 1018.02 1017.82 1017.62 1017.42 1017.34 1017.34 1017.18 1016.94 1016.66 1016.54 1016.34 1016.22 1016.14 1015.94 1015.78 1015.62
1023.86 1023.98 1024.06 1024.18 1024.30 1024.34 1024.42 1024.50 1024.58 1024.62 1024.70 1024.90 1025.02 1025.06 1025.14 1025.22 1025.30 1025.34 1025.38 1025.42 1025.54 1025.50 1025.46 1025.38 1025.30 1025.18 1025.10 1025.02 1024.86 1024.66 1024.50 1024.34 1024.14 1023.98 1023.82 1023.62 1023.42 1023.22 1023.02 1022.86 1022.70 1022.46 1022.26 1022.18 1022.02 1021.90 1021.74 1021.50 1021.22 1021.06 1020.90 1020.62 1020.42 1020.02 1019.38 1018.74 1018.58 1018.22 1018.02 1017.58 1017.38 1017.14 1017.10 1017.06 1016.86 1016.70 1016.50 1016.30 1016.22 1016.02 1015.94 1015.74 1015.58 1015.46
1023.90 1024.02 1024.14 1024.26 1024.38 1024.50 1024.62 1024.74 1024.82 1024.98 1025.10 1025.14 1025.18 1025.26 1025.30 1025.34 1025.42 1025.50 1025.54 1025.58 1025.54 1025.46 1025.46 1025.42 1025.30 1025.14 1025.02 1024.98 1024.86 1024.66 1024.46 1024.22 1023.94 1023.74 1023.50 1023.30 1023.10 1022.86 1022.70 1022.54 1022.34 1022.06 1021.94 1021.82 1021.66 1021.50 1021.34 1021.18 1020.94 1020.74 1020.58 1020.30 1020.06 1019.50 1019.38 1018.70 1018.58 1018.22 1018.02 1017.78 1017.42 1016.98 1016.82 1016.74 1016.66 1016.50 1016.22 1016.06 1016.02 1015.94 1015.86 1015.74 1015.58 1015.42
1023.98 1024.14 1024.26 1024.42 1024.54 1024.70 1024.82 1024.86 1025.02 1025.18 1025.34 1025.34 1025.38 1025.42 1025.46 1025.46 1025.54 1025.58 1025.58 1025.58 1025.62 1025.62 1025.54 1025.42 1025.30 1025.14 1025.02 1024.82 1024.62 1024.46 1024.26 1023.98 1023.70 1023.50 1023.26 1023.02 1022.70 1022.46 1022.22 1021.98 1021.66 1021.46 1021.38 1021.30 1021.14 1020.98 1020.82 1020.70 1020.58 1020.42 1020.22 1019.98 1019.74 1019.42 1019.10 1018.78 1018.30 1018.02 1017.78 1017.74 1017.34 1016.98 1016.66 1016.46 1016.22 1016.10 1016.18 1016.02 1015.78 1015.74 1015.66 1015.66 1015.58 1015.50
1024.18 1024.42 1024.50 1024.62 1024.78 1024.90 1024.98 1025.10 1025.26 1025.30 1025.38 1025.34 1025.42 1025.50 1025.58 1025.62 1025.66 1025.70 1025.74 1025.78 1025.78 1025.70 1025.62 1025.46 1025.30 1025.10 1024.90 1024.62 1024.34 1024.10 1023.90 1023.70 1023.42 1023.22 1023.06 1022.86 1022.54 1022.30 1021.98 1021.78 1021.42 1021.02 1020.74 1020.62 1020.54 1020.46 1020.34 1020.18 1020.10 1020.02 1019.98 1019.66 1019.42 1019.18 1018.82 1018.66 1018.26 1017.90 1017.58 1017.42 1017.34 1017.38 1016.50 1016.38 1016.22 1016.02 1015.86 1015.78 1015.70 1015.58 1015.50 1015.46 1015.42 1015.34
1024.34 1024.58 1024.78 1024.82 1024.90 1024.90 1024.98 1025.10 1025.22 1025.38 1025.50 1025.58 1025.58 1025.62 1025.70 1025.74 1025.82 1025.78 1025.78 1025.74 1025.74 1025.66 1025.54 1025.34 1025.10 1024.82 1024.54 1024.34 1024.14 1023.86 1023.62 1023.42 1023.14 1022.94 1022.82 1022.62 1022.30 1022.06 1021.82 1021.74 1021.38 1021.02 1020.58 1020.34 1020.18 1020.06 1020.02 1019.90 1019.74 1019.58 1019.50 1019.34 1019.18 1018.78 1018.62 1018.46 1018.14 1017.78 1017.46 1017.14 1017.02 1016.74 1016.58 1016.46 1016.18 1015.94 1015.86 1015.82 1015.70 1015.42 1015.18 1015.26 1015.18 1015.06
1024.58 1024.58 1024.66 1024.74 1024.86 1024.94 1025.06 1025.22 1025.42 1025.54 1025.58 1025.62 1025.74 1025.78 1025.74 1025.78 1025.78 1025.74 1025.66 1025.58 1025.46 1025.34 1025.18 1024.94 1024.82 1024.62 1024.38 1024.10 1023.86 1023.62 1023.38 1023.10 1022.86 1022.62 1022.54 1022.30 1022.18 1021.86 1021.78 1021.62 1021.26 1020.94 1020.62 1020.22 1020.02 1019.78 1019.66 1019.54 1019.38 1019.22 1019.02 1018.82 1018.70 1018.58 1018.54 1018.34 1017.82 1017.58 1017.34 1016.94 1016.82 1016.54 1016.30 1016.22 1016.06 1015.82 1015.74 1015.78 1015.62 1015.42 1015.18 1015.02 1015.06 1014.98
1024.30 1024.62 1024.66 1024.86 1024.98 1025.18 1025.30 1025.50 1025.66 1025.78 1025.86 1025.90 1025.86 1025.86 1025.90 1025.90 1025.78 1025.70 1025.66 1025.54 1025.30 1025.14 1024.98 1024.74 1024.54 1024.34 1024.14 1023.90 1023.62 1023.46 1023.22 1022.90 1022.70 1022.50 1022.42 1022.14 1021.94 1021.82 1021.58 1021.34 1020.98 1020.66 1020.46 1020.14 1019.82 1019.54 1019.30 1019.14 1018.94 1018.74 1018.58 1018.38 1018.22 1018.10 1018.10 1018.02 1017.50 1017.18 1017.02 1016.82 1016.66 1016.42 1016.06 1016.02 1015.82 1015.70 1015.66 1015.58 1015.46 1015.30 1015.06 1014.78 1014.78 1014.86
1024.22 1024.46 1024.66 1025.06 1025.34 1025.54 1025.66 1025.74 1025.86 1025.98 1026.06 1026.10 1026.10 1026.02 1026.02 1025.98 1025.90 1025.78 1025.62 1025.38 1025.14 1024.90 1024.70 1024.50 1024.30 1024.10 1023.98 1023.78 1023.58 1023.38 1023.14 1022.90 1022.54 1022.26 1022.06 1021.86 1021.70 1021.58 1021.34 1021.14 1020.70 1020.42 1020.18 1019.86 1019.58 1019.26 1019.14 1018.94 1018.82 1018.62 1018.34 1018.10 1017.78 1017.22 1017.26 1017.26 1017.22 1016.86 1016.78 1016.62 1016.38 1016.18 1015.90 1015.74 1015.66 1015.54 1015.46 1015.38 1015.38 1015.34 1014.98 1014.78 1014.66 1014.70
1024.38 1024.46 1024.78 1025.18 1025.42 1025.66 1025.70 1025.86 1026.06 1026.22 1026.18 1026.18 1026.18 1026.18 1026.06 1025.86 1025.78 1025.70 1025.42 1025.18 1024.98 1024.78 1024.54 1024.30 1024.10 1023.94 1023.82 1023.62 1023.42 1023.22 1022.98 1022.70 1022.42 1022.10 1021.78 1021.62 1021.46 1021.22 1021.02 1020.78 1020.46 1020.14 1019.86 1019.62 1019.30 1019.02 1018.90 1018.82 1018.78 1018.74 1018.46 1018.10 1017.90 1017.42 1016.90 1016.62 1016.70 1016.66 1016.62 1016.34 1016.06 1015.90 1015.74 1015.62 1015.54 1015.46 1015.42 1015.34 1015.18 1015.14 1014.94 1014.66 1014.42 1014.54
1024.46 1024.74 1024.90 1025.22 1025.54 1025.70 1025.78 1025.98 1026.06 1026.14 1026.18 1026.18 1026.14 1026.14 1026.10 1025.94 1025.70 1025.50 1025.30 1025.14 1024.90 1024.62 1024.42 1024.26 1024.06 1023.86 1023.62 1023.42 1023.22 1023.02 1022.78 1022.50 1022.18 1021.86 1021.62 1021.34 1021.18 1020.98 1020.74 1020.38 1020.14 1019.82 1019.58 1019.22 1018.98 1018.74 1018.74 1018.66 1018.54 1018.54 1018.38 1018.06 1017.82 1017.46 1016.78 1016.50 1016.34 1016.22 1016.14 1016.06 1015.82 1015.70 1015.70 1015.66 1015.58 1015.42 1015.26 1015.22 1015.10 1014.94 1014.74 1014.58 1014.46 1014.66
1024.42 1024.86 1025.06 1025.30 1025.54 1025.74 1025.94 1026.02 1026.10 1026.10 1026.06 1026.10 1026.06 1026.02 1025.90 1025.82 1025.62 1025.38 1025.14 1024.90 1024.66 1024.46 1024.22 1024.02 1023.86 1023.66 1023.50 1023.34 1023.18 1022.86 1022.54 1022.22 1021.94 1021.70 1021.42 1021.18 1020.98 1020.70 1020.46 1020.22 1019.82 1019.54 1019.26 1018.94 1018.70 1018.50 1018.38 1018.38 1018.30 1018.18 1018.14 1017.94 1017.58 1017.22 1016.86 1016.10 1016.22 1016.02 1015.98 1016.06 1016.02 1015.78 1015.70 1015.70 1015.58 1015.42 1015.26 1015.22 1015.22 1014.98 1014.82 1014.70 1014.78 1014.90
1024.50 1024.86 1025.10 1025.34 1025.58 1025.78 1025.82 1025.94 1026.06 1026.06 1026.06 1025.98 1025.94 1025.94 1025.90 1025.70 1025.46 1025.22 1024.98 1024.74 1024.54 1024.34 1024.14 1023.90 1023.74 1023.58 1023.42 1023.18 1022.90 1022.66 1022.38 1022.10 1021.86 1021.54 1021.26 1020.98 1020.74 1020.50 1020.18 1019.90 1019.62 1019.22 1019.02 1018.70 1018.38 1018.14 1018.02 1018.02 1017.90 1017.82 1017.74 1017.62 1017.34 1016.98 1016.66 1016.58 1016.22 1015.98 1015.90 1015.90 1015.82 1015.78 1015.50 1015.58 1015.50 1015.38 1015.34 1015.26 1015.30 1015.34 1015.26 1015.18 1015.14 1015.10
1024.74 1024.94 1025.10 1025.30 1025.58 1025.74 1025.82 1025.98 1026.02 1026.10 1026.02 1025.94 1025.98 1025.94 1025.82 1025.58 1025.38 1025.18 1024.90 1024.66 1024.42 1024.22 1024.10 1023.94 1023.74 1023.46 1023.18 1022.94 1022.70 1022.42 1022.18 1021.94 1021.66 1021.34 1021.06 1020.78 1020.42 1020.18 1019.94 1019.62 1019.38 1019.06 1018.74 1018.46 1018.18 1017.82 1017.70 1017.50 1017.42 1017.34 1017.26 1017.06 1016.86 1016.66 1016.54 1016.46 1016.22 1015.94 1015.74 1015.42 1015.34 1015.42 1015.30 1015.38 1015.38 1015.30 1015.22 1015.22 1015.34 1015.30 1015.30 1015.26 1015.26 1015.34
1024.82 1024.98 1025.26 1025.38 1025.54 1025.70 1025.74 1025.90 1026.02 1026.02 1025.94 1026.02 1025.94 1025.82 1025.62 1025.46 1025.30 1025.10 1024.90 1024.62 1024.42 1024.26 1024.10 1023.86 1023.58 1023.30 1023.02 1022.70 1022.46 1022.30 1022.06 1021.70 1021.38 1021.06 1020.78 1020.46 1020.18 1019.86 1019.58 1019.34 1019.06 1018.78 1018.58 1018.18 1017.90 1017.58 1017.26 1016.94 1016.82 1016.78 1016.74 1016.70 1016.54 1016.58 1016.50 1016.30 1015.98 1015.50 1015.26 1014.98 1015.02 1015.10 1015.06 1015.10 1015.10 1015.18 1015.14 1015.26 1015.30 1015.26 1015.22 1015.22 1015.34 1015.42
1024.82 1025.06 1025.34 1025.42 1025.46 1025.66 1025.82 1025.90 1025.98 1025.98 1025.94 1025.94 1025.86 1025.66 1025.54 1025.38 1025.18 1024.98 1024.74 1024.54 1024.38 1024.26 1024.10 1023.78 1023.46 1023.14 1022.86 1022.54 1022.30 1022.06 1021.90 1021.54 1021.18 1020.82 1020.54 1020.22 1019.90 1019.50 1019.22 1019.02 1018.74 1018.38 1018.26 1017.94 1017.58 1017.22 1016.78 1016.58 1016.54 1016.54 1016.54 1016.54 1016.46 1016.42 1016.14 1015.90 1015.66 1015.34 1015.02 1014.94 1014.98 1015.02 1014.94 1014.82 1014.74 1014.70 1014.78 1014.98 1015.14 1015.18 1015.38 1015.46 1015.34 1015.50
1024.94 1025.10 1025.26 1025.46 1025.66 1025.78 1025.86 1025.98 1025.98 1025.94 1025.90 1025.86 1025.66 1025.62 1025.54 1025.30 1025.02 1024.82 1024.66 1024.46 1024.34 1024.18 1023.98 1023.70 1023.38 1023.10 1022.78 1022.46 1022.18 1021.94 1021.66 1021.30 1020.98 1020.62 1020.26 1019.94 1019.62 1019.30 1018.94 1018.62 1018.38 1018.10 1017.90 1017.54 1017.18 1016.90 1016.54 1016.38 1016.30 1016.30 1016.26 1016.26 1016.10 1016.06 1015.82 1015.58 1015.46 1015.26 1015.06 1014.94 1015.02 1015.18 1015.10 1014.78 1014.54 1014.66 1014.82 1014.90 1014.98 1014.98 1015.02 1015.02 1015.10 1015.18
1024.98 1025.10 1025.30 1025.54 1025.66 1025.82 1026.02 1026.02 1025.90 1025.90 1025.86 1025.74 1025.70 1025.62 1025.50 1025.30 1025.14 1024.90 1024.74 1024.54 1024.38 1024.18 1023.90 1023.66 1023.38 1023.06 1022.74 1022.38 1022.10 1021.78 1021.42 1021.06 1020.70 1020.38 1019.98 1019.62 1019.30 1019.02 1018.70 1018.34 1018.02 1017.78 1017.54 1017.26 1016.94 1016.58 1016.30 1016.10 1015.98 1016.06 1016.10 1015.86 1015.78 1015.78 1015.66 1015.54 1015.34 1015.14 1015.06 1015.14 1015.30 1015.30 1015.34 1015.26 1015.10 1015.02 1015.06 1015.14 1015.14 1015.06 1014.90 1014.86 1014.82 1014.66
1025.02 1025.14 1025.38 1025.62 1025.78 1026.02 1025.98 1025.90 1025.86 1025.82 1025.74 1025.70 1025.70 1025.62 1025.50 1025.38 1025.26 1025.06 1024.86 1024.66 1024.42 1024.14 1023.94 1023.66 1023.42 1023.06 1022.74 1022.42 1022.10 1021.70 1021.18 1020.78 1020.42 1020.06 1019.74 1019.34 1018.98 1018.66 1018.34 1018.06 1017.78 1017.46 1017.26 1016.98 1016.82 1016.46 1016.10 1015.94 1015.78 1015.74 1015.82 1015.70 1015.62 1015.58 1015.46 1015.42 1015.30 1015.10 1015.14 1015.30 1015.38 1015.42 1015.42 1015.34 1015.34 1015.38 1015.42 1015.50 1015.46 1015.26 1015.14 1015.06 1015.06 1015.06
Wind_Speed
5 5 6 5 5 4 4 5 5 5 5 5 5 5 5 4 7 3 4 3 3 5 5 5 6 7 7 6 6 7 8 11 11 8 8 8 8 14 18 19 18 18 19 18 17 17 16 16 16 14 11 10 10 10 8 6 6 8 8 8 9 10 11 13 14 15 19 20 18 16 16 13 15 15
5 5 5 5 5 3 6 6 5 6 6 6 6 6 4 4 6 4 5 3 0 3 4 4 4 5 7 6 6 6 7 12 11 9 8 8 9 14 16 17 17 17 17 17 17 17 16 16 17 16 13 11 11 10 10 9 7 7 8 9 9 9 10 11 12 14 17 17 18 17 16 14 18 17
4 5 6 5 5 4 6 5 5 5 6 6 6 6 6 5 6 6 4 4 1 1 4 3 2 4 5 6 5 6 6 9 10 7 7 8 11 13 12 14 15 15 15 16 16 16 15 15 16 14 14 15 14 12 11 13 11 8 7 7 8 9 11 10 11 12 15 16 17 17 17 14 14 18
4 6 6 4 5 4 5 5 5 5 5 5 6 6 6 5 4 5 5 6 4 0 3 2 3 5 3 6 7 6 5 6 9 7 6 7 9 8 7 11 13 13 13 14 14 14 14 14 14 14 14 14 15 15 14 13 12 11 10 8 7 8 10 10 10 12 13 13 13 13 14 15 14 16
4 5 6 5 4 4 6 5 5 5 5 5 6 5 6 6 3 5 5 5 3 1 1 2 3 4 3 6 7 6 5 6 6 7 6 6 7 7 6 6 9 11 11 12 12 13 13 14 13 14 14 14 14 15 14 14 13 12 11 10 9 8 8 9 9 9 11 12 11 10 10 11 13 14
3 5 6 4 4 2 6 5 5 5 5 5 6 4 5 5 4 2 4 3 3 3 1 3 2 3 3 4 6 6 6 6 5 7 6 5 7 6 6 6 6 10 9 10 11 12 13 13 13 13 13 13 12 13 13 12 11 10 10 11 10 9 8 7 8 8 10 11 10 8 8 8 9 11
4 4 4 5 4 4 6 4 4 4 5 4 5 4 3 5 4 3 2 4 4 4 1 1 2 3 3 4 5 6 4 4 3 5 6 5 5 5 6 6 5 9 8 9 10 11 11 12 12 12 12 12 12 12 12 11 11 9 9 10 11 11 11 10 8 6 6 8 9 10 9 9 9 9
6 6 5 5 5 4 6 5 4 3 4 4 4 4 3 4 4 3 4 4 4 2 4 3 3 3 3 3 3 4 3 4 4 5 4 2 4 5 5 6 6 7 7 7 8 9 10 11 11 12 12 12 11 11 11 11 11 10 9 10 11 12 12 11 11 10 8 8 8 9 9 10 12 13
7 6 7 6 6 5 6 5 5 4 5 4 5 5 3 3 3 3 3 3 3 4 4 2 1 2 2 2 1 4 5 4 2 3 4 2 3 4 4 4 5 7 5 5 7 8 8 10 11 10 11 11 10 11 11 11 11 10 9 10 11 11 11 11 11 11 10 9 7 9 9 9 10 13
6 7 7 6 7 7 7 7 6 5 6 5 6 6 5 4 4 5 3 3 3 5 4 3 3 2 3 3 2 5 5 6 6 5 3 0 2 5 5 4 4 4 3 3 4 6 8 10 10 10 10 10 10 10 10 10 10 10 10 11 11 11 11 11 11 11 10 10 9 8 8 9 9 11
6 6 6 6 7 8 7 7 7 6 5 5 6 6 6 5 5 5 4 3 4 4 3 2 2 1 1 2 4 3 4 4 4 7 9 5 1 3 6 8 4 3 2 2 4 7 7 9 9 10 11 10 10 10 10 9 10 10 10 11 11 10 10 10 11 11 11 11 11 10 10 9 10 11
7 8 7 7 8 8 8 7 6 7 7 5 6 4 5 5 5 5 3 3 3 3 2 2 1 1 1 2 0 2 2 3 1 4 3 7 10 9 5 4 8 4 2 5 5 5 7 7 7 7 7 9 10 10 10 10 10 10 10 11 11 10 10 11 11 11 11 12 12 12 11 11 10 10
6 7 7 8 8 7 6 10 9 8 8 7 6 5 5 5 6 5 3 3 3 2 2 1 0 1 2 1 3 4 3 5 4 4 3 4 5 7 8 6 3 2 5 5 5 6 7 9 7 6 6 6 8 7 9 9 11 11 11 11 11 9 9 10 10 11 11 11 11 11 12 12 12 12
5 7 7 7 8 11 11 10 11 11 10 7 6 7 6 5 5 4 4 2 2 2 2 2 2 4 4 2 2 2 1 2 3 3 3 6 6 5 6 5 0 2 4 9 10 7 4 7 8 6 7 6 5 6 6 7 9 12 12 12 11 9 7 9 10 10 10 11 11 11 11 12 13 13
5 5 4 3 3 4 3 5 8 8 7 6 7 8 5 4 5 5 4 2 2 2 0 0 1 1 4 3 0 2 2 1 3 4 4 5 6 6 8 10 5 4 9 9 9 9 6 6 8 7 7 7 6 6 7 11 13 13 11 11 10 9 8 9 9 9 10 10 11 12 12 12 12 13
4 4 4 4 4 4 5 6 6 7 10 11 12 11 10 10 10 5 4 4 2 3 2 2 2 2 2 2 2 1 2 4 3 3 4 4 5 7 6 5 7 6 8 9 9 9 4 5 7 7 6 7 7 7 11 13 14 13 10 11 10 9 9 9 9 10 10 10 11 11 12 13 13 13
4 4 3 3 3 4 10 8 7 7 9 11 14 12 12 11 10 9 9 6 3 4 3 2 2 3 1 1 1 1 2 1 5 5 4 4 4 4 5 6 7 9 7 6 7 10 8 5 6 8 8 7 6 7 9 13 15 14 11 10 9 9 10 9 9 10 10 10 10 10 11 12 13 13
4 4 4 4 4 4 6 6 7 7 8 7 7 6 5 5 7 8 8 8 7 4 3 3 1 1 2 1 1 2 1 3 5 4 5 4 5 5 6 7 8 8 6 5 7 8 6 5 7 8 7 6 6 6 10 14 14 14 12 10 9 10 10 9 9 11 11 11 11 11 10 11 12 13
0 3 3 5 6 5 6 4 7 8 8 7 6 6 5 4 4 4 4 4 3 3 3 2 2 2 2 2 2 3 2 4 5 4 6 6 6 7 6 6 6 6 4 5 4 7 6 7 7 7 7 7 7 7 9 13 14 13 11 10 10 10 11 11 10 10 11 11 12 12 12 11 11 11
5 5 6 7 7 7 6 7 11 9 7 7 7 6 5 4 3 3 2 3 3 3 2 2 1 1 1 2 3 4 3 3 3 4 4 4 4 4 5 6 4 5 3 5 6 6 6 5 7 9 9 8 7 7 7 11 13 12 9 9 10 11 11 13 13 12 12 11 11 12 12 12 12 12
6 5 6 7 7 8 7 7 11 10 9 8 7 7 5 4 4 3 2 3 2 2 1 0 1 3 3 4 4 6 6 5 4 3 3 4 3 5 8 7 6 7 4 5 4 4 8 5 6 10 8 8 9 8 7 7 8 8 9 9 11 11 11 12 13 13 13 13 12 12 12 11 12 13
6 6 8 7 7 8 6 8 11 10 9 8 6 6 5 3 4 3 2 1 0 0 1 3 2 1 1 1 3 4 5 5 2 1 4 5 3 6 7 9 9 9 7 5 2 5 10 8 5 9 10 10 5 5 5 6 4 5 8 12 12 12 12 13 13 12 13 14 13 12 11 11 12 10
6 6 6 8 7 7 6 9 9 9 8 6 5 4 5 4 4 1 1 2 3 5 6 5 6 6 7 5 4 5 8 7 5 2 3 3 3 6 8 8 9 10 4 2 3 10 10 10 9 8 11 10 8 6 4 3 7 9 7 6 7 11 13 13 12 13 13 13 13 11 11 11 9 7
6 6 6 7 9 9 9 9 9 8 8 8 5 4 4 4 3 1 1 1 1 2 1 3 2 3 4 4 4 4 5 5 5 4 3 3 3 4 6 8 8 9 9 7 7 10 10 9 11 8 9 11 9 5 8 10 6 5 5 7 5 10 11 11 9 11 12 12 12 10 10 9 7 7
6 5 4 4 6 9 9 9 9 9 8 7 6 5 4 2 2 2 3 3 3 3 3 3 3 3 4 4 4 4 4 4 4 4 5 4 4 4 5 9 11 11 10 9 7 9 11 10 12 10 10 9 11 12 9 9 9 6 7 7 8 7 6 6 5 6 9 11 9 9 9 9 7 5
2 3 3 4 4 8 8 8 8 8 8 7 5 5 5 4 4 3 2 2 2 3 2 3 3 3 3 4 4 4 4 5 5 5 5 5 5 5 5 7 11 12 11 8 8 9 11 11 10 11 11 11 12 11 13 10 10 10 9 7 6 6 5 6 5 6 6 6 6 5 7 9 8 6
6 4 4 3 5 6 7 7 8 8 9 6 6 7 7 6 6 4 3 3 3 2 2 3 3 3 4 4 5 5 5 5 5 6 6 6 6 7 7 7 8 10 11 10 9 10 10 11 9 11 12 11 14 12 11 12 10 7 6 5 6 6 5 4 5 6 6 6 6 8 7 7 7 7
6 5 4 3 5 7 8 9 9 9 8 7 8 8 8 7 6 4 3 3 2 2 3 3 4 4 4 5 6 6 7 7 7 7 6 6 7 8 9 10 10 11 11 10 9 9 9 10 10 10 11 12 12 13 14 11 11 10 11 10 10 8 5 5 6 6 6 5 5 4 4 4 3 3
5 5 8 9 9 10 10 11 10 8 8 9 9 9 8 6 4 4 3 3 3 4 3 4 6 6 6 6 8 8 8 8 8 7 8 8 9 9 9 8 9 9 7 7 9 9 9 10 11 10 10 10 12 12 11 13 11 11 10 11 11 10 8 5 5 7 7 5 4 4 4 4 4 2
9 10 11 12 11 9 7 7 6 5 5 8 8 8 6 4 3 3 3 4 4 5 6 6 7 7 8 8 9 9 8 8 9 9 9 9 9 10 10 11 10 9 7 7 8 8 9 8 8 9 11 11 11 12 11 12 12 11 9 9 11 11 10 9 8 5 4 5 5 4 4 3 4 4
6 7 7 7 8 8 10 9 5 5 5 6 5 5 3 3 3 3 3 3 4 5 6 7 7 8 8 9 9 9 9 9 9 9 9 9 9 10 10 11 12 12 9 7 7 8 8 8 8 9 10 10 10 11 11 11 12 12 10 8 7 9 7 7 7 7 7 6 5 5 3 3 4 5
6 7 6 7 5 5 6 6 5 5 5 3 3 4 3 3 2 2 3 2 1 2 3 6 7 8 8 9 10 10 10 10 10 10 10 10 11 11 10 10 11 11 11 10 9 7 7 8 9 10 10 11 11 12 10 10 11 11 12 10 9 9 7 8 8 8 7 7 7 7 4 2 4 3
6 6 6 4 5 5 4 4 3 4 4 3 3 4 4 3 2 2 2 3 3 3 4 8 8 9 9 9 8 9 10 10 10 7 7 9 9 9 8 9 10 10 11 11 9 9 9 10 9 10 10 11 12 12 11 11 11 11 12 12 10 10 8 7 7 8 7 6 8 6 6 3 3 4
6 4 4 4 4 4 3 3 3 2 2 2 3 3 3 3 3 3 3 3 4 4 4 6 7 7 7 9 8 9 9 10 9 9 7 9 9 9 9 10 10 10 10 10 10 10 10 10 9 9 9 9 9 10 10 11 12 12 11 11 11 11 9 7 7 8 7 7 7 8 8 7 3 3
4 5 5 3 4 3 2 2 1 1 1 2 2 3 3 3 3 3 4 4 3 4 5 5 5 5 7 8 8 8 9 10 10 9 7 7 8 8 10 11 11 10 11 10 10 10 9 9 9 10 9 9 9 10 11 11 10 11 10 10 10 10 10 7 7 7 7 7 5 7 7 7 6 3
4 4 5 3 3 2 2 0 0 0 1 2 2 2 3 4 3 3 4 4 5 5 6 6 7 8 8 8 8 9 9 9 9 9 9 8 8 8 8 9 10 10 10 10 10 9 8 9 7 9 9 9 9 10 6 12 13 8 9 9 9 9 8 6 6 5 5 6 6 7 7 7 6 1
4 3 4 3 2 2 2 0 0 1 1 1 2 2 2 3 4 4 5 5 5 4 5 6 7 7 8 8 9 8 8 8 9 9 9 8 7 8 10 10 9 9 10 10 8 7 6 8 7 7 8 8 9 10 10 2 9 12 9 9 8 6 6 5 4 4 3 4 6 6 5 4 3 1
5 3 3 2 3 2 1 0 0 1 1 1 2 3 3 3 4 5 5 4 4 5 5 6 7 6 7 7 8 8 8 8 8 9 9 9 9 9 9 10 10 9 10 10 9 9 6 6 7 7 7 8 9 9 9 6 4 4 1 3 5 5 3 4 4 3 3 2 4 4 2 1 0 1
6 5 4 3 2 3 1 1 0 0 2 2 2 2 4 4 4 4 4 4 5 5 5 6 6 6 8 8 8 8 8 8 9 9 9 9 9 10 9 9 10 9 9 10 9 9 7 6 7 7 7 8 8 8 9 9 9 4 3 4 5 6 6 3 4 3 2 3 1 2 3 3 5 5
5 4 4 4 3 2 2 0 0 0 1 2 2 2 3 4 4 4 5 5 5 5 5 6 7 8 8 7 7 7 8 9 9 9 9 10 9 8 9 9 9 10 10 10 10 9 7 7 6 7 6 7 7 7 6 7 7 5 7 9 13 10 6 4 5 4 4 2 2 1 2 0 1 2
5 3 2 3 3 2 1 0 0 1 2 2 3 3 3 3 4 4 5 6 6 6 6 6 6 8 8 8 7 7 8 8 9 9 9 9 9 9 10 10 10 8 9 10 9 9 9 7 7 8 8 6 6 5 5 6 7 6 6 4 2 4 7 7 6 5 3 2 2 1 2 2 2 2
4 3 2 2 2 1 1 0 0 1 2 2 2 2 4 4 4 6 5 6 6 6 6 6 7 8 9 8 8 7 8 9 9 9 8 9 9 9 9 8 8 8 8 9 9 9 8 7 7 6 5 4 4 4 6 6 7 6 5 2 1 3 6 7 12 9 5 5 5 3 2 2 2 2
4 3 3 2 1 0 0 0 0 1 1 2 2 3 3 4 5 6 5 6 6 6 6 7 8 8 8 9 8 8 8 8 8 9 9 9 9 9 9 8 8 8 8 9 8 7 7 6 6 5 4 4 5 4 6 6 5 5 5 4 1 1 3 7 8 6 6 6 4 2 1 1 2 2
3 3 2 1 1 1 0 0 0 0 1 1 2 2 3 5 5 6 6 6 6 6 7 7 8 8 8 8 9 9 8 9 8 9 9 9 8 8 8 8 8 8 7 7 8 8 7 6 4 3 4 4 3 4 5 5 5 4 4 1 1 2 3 2 4 7 8 10 10 5 3 2 2 2
3 3 2 1 1 1 0 0 1 1 1 2 2 3 4 4 5 6 6 6 6 7 7 7 7 8 8 9 9 10 9 9 9 8 8 8 7 7 8 8 8 7 7 7 7 8 6 6 5 4 3 4 3 3 3 3 4 4 2 2 3 2 2 1 3 5 5 5 9 8 8 12 14 18
Wind_Direction
100 81 79 99 90 60 74 69 73 87 81 74 77 70 104 142 124 128 77 24 43 32 16 34 7 12 13 14 14 19 26 23 24 29 30 31 31 27 34 33 34 33 32 30 29 29 28 24 21 16 12 4 350 344 345 336 310 297 291 283 269 261 261 258 252 249 250 253 255 248 241 231 214 219
103 95 79 84 80 71 73 78 81 85 88 80 74 79 81 91 108 146 119 108 221 55 15 46 6 1 16 12 19 23 23 20 27 25 29 31 25 26 32 34 35 34 33 31 30 30 30 28 25 21 13 13 9 8 357 359 355 329 314 297 287 278 270 260 255 253 256 256 255 254 249 231 217 213
98 91 85 81 85 86 92 86 80 74 84 87 86 77 71 64 100 109 121 111 348 156 47 356 2 356 11 20 21 22 21 17 26 26 25 30 26 30 28 32 35 34 32 31 29 27 26 24 21 17 15 16 15 8 4 8 2 3 353 331 312 299 287 277 269 259 256 257 260 259 255 248 225 222
105 104 95 89 105 104 97 85 82 84 74 86 85 81 82 71 76 101 96 100 90 297 79 49 335 5 4 27 30 27 18 11 19 26 25 25 25 28 23 23 33 34 33 29 29 27 25 21 19 16 14 16 16 16 14 10 7 3 3 353 339 326 316 301 288 280 272 268 270 269 263 259 249 241
117 123 126 131 133 131 102 111 105 92 93 84 80 85 90 86 82 101 102 104 92 5 269 357 9 353 351 43 25 29 21 13 14 22 22 23 27 26 18 13 25 30 31 29 27 26 23 19 17 14 11 12 13 13 12 12 12 12 10 4 357 345 335 328 314 298 289 284 281 280 278 272 262 252
149 138 132 138 124 86 118 129 117 123 115 107 93 84 101 100 91 191 120 112 119 74 276 9 3 4 353 63 24 25 10 10 8 20 18 25 28 22 11 10 13 16 26 26 25 23 20 17 12 9 6 4 6 7 5 4 7 8 11 10 4 356 349 342 331 322 313 302 293 285 281 277 270 260
150 139 145 164 144 131 110 108 119 121 116 107 105 110 86 96 82 42 89 121 101 73 50 226 33 20 3 49 25 17 16 3 360 18 14 16 22 17 7 6 4 3 16 20 21 19 16 13 7 3 1 357 357 357 357 354 355 358 5 10 1 355 348 343 335 319 299 299 295 291 282 272 263 257
177 173 158 184 169 150 132 147 138 128 116 114 105 99 62 81 79 33 30 48 128 124 56 6 44 10 19 18 23 8 12 14 13 24 357 3 30 11 6 358 356 356 7 10 14 14 11 6 0 356 353 351 348 349 348 347 346 348 351 357 355 350 345 342 337 331 321 313 309 302 295 288 284 274
188 184 188 181 174 165 147 167 163 155 143 132 118 115 106 99 92 54 38 31 70 112 85 32 9 349 9 355 3 12 359 357 27 14 3 349 21 8 4 342 347 335 358 353 5 4 1 357 352 347 343 341 340 339 341 340 340 341 341 345 346 344 343 341 339 334 326 315 301 300 296 293 286 281
201 197 200 185 172 174 174 184 180 170 149 138 131 124 128 127 116 102 79 69 58 80 102 94 48 358 14 352 3 8 1 349 353 360 14 346 13 360 352 3 348 339 346 350 1 354 349 351 341 338 333 330 329 331 332 331 331 332 334 338 339 339 341 340 335 329 322 314 305 293 289 288 281 279
210 215 214 199 190 192 192 177 178 158 145 150 148 148 145 146 132 122 123 124 92 80 91 94 93 45 105 23 352 3 3 346 41 1 338 343 73 30 356 336 344 333 332 351 356 343 336 330 328 325 323 320 319 323 325 324 323 324 329 333 334 336 337 336 332 328 322 315 307 297 288 282 278 273
209 210 206 215 210 203 191 181 170 162 164 157 140 154 147 160 135 122 126 95 87 77 61 43 84 46 349 359 5 305 345 10 59 31 357 330 334 337 348 335 322 331 342 340 339 334 328 320 310 302 302 307 310 318 322 321 320 320 326 330 330 331 338 341 337 331 327 323 317 308 296 285 273 266
220 223 215 214 215 208 212 185 174 183 167 157 154 172 168 156 130 116 105 115 104 102 85 8 293 73 32 16 347 353 14 15 345 334 349 310 312 314 318 324 293 312 342 333 319 328 335 323 320 320 320 319 314 314 314 313 314 319 326 328 326 330 344 339 331 329 326 323 318 312 305 294 284 271
222 229 226 230 225 210 208 198 182 172 178 172 156 163 164 143 115 118 123 119 119 94 53 359 339 357 358 357 360 345 322 315 320 327 338 324 317 308 291 273 190 15 1 334 326 325 335 316 312 321 320 314 310 310 313 315 313 316 322 323 324 325 333 330 325 323 322 319 316 312 308 301 293 283
234 229 233 266 272 246 224 164 159 160 154 122 120 115 95 94 132 140 114 140 141 140 141 116 333 324 314 316 306 308 318 335 335 328 326 316 324 339 347 330 329 112 1 336 321 316 339 330 321 320 314 314 312 308 307 310 309 312 319 319 317 314 315 319 320 320 320 318 316 313 309 304 297 289
237 225 208 222 213 193 164 131 124 107 100 96 87 80 75 71 63 72 134 145 133 149 146 196 233 207 242 279 349 335 347 326 320 313 314 314 324 323 321 309 306 326 356 329 319 304 323 330 315 315 316 313 310 306 306 305 305 308 317 314 310 306 309 311 311 314 317 318 317 314 311 307 302 295
243 232 216 183 161 155 134 130 136 125 102 93 94 90 82 69 72 74 68 63 109 149 134 184 219 208 174 321 279 228 293 282 300 312 313 316 312 303 295 295 307 312 330 318 309 311 318 329 324 317 314 311 303 299 299 301 302 304 310 304 300 304 308 312 312 314 315 314 313 313 311 308 305 301
222 204 186 151 125 114 128 130 124 107 103 106 98 88 81 86 74 70 76 83 79 86 128 147 171 205 153 263 232 278 309 294 292 300 296 301 296 291 285 299 294 294 306 305 309 295 308 332 324 311 308 308 301 298 298 295 294 297 302 295 291 298 305 312 314 313 312 311 311 312 309 305 303 301
48 138 117 100 96 91 91 109 125 116 116 109 103 96 89 83 75 77 71 58 83 82 86 120 149 155 187 240 264 267 267 251 259 265 274 283 283 285 288 272 258 278 269 282 300 291 316 316 310 306 309 308 302 298 296 291 291 294 295 288 290 299 314 319 314 306 304 305 306 310 313 312 308 304
43 65 88 95 90 86 85 104 114 118 119 109 108 103 103 95 81 69 40 51 70 86 128 143 157 174 218 237 253 263 267 265 259 268 268 278 269 286 296 299 303 284 277 273 281 279 299 305 296 304 308 303 295 294 287 288 287 295 298 291 295 308 314 312 311 308 304 299 299 306 311 314 316 312
46 55 85 102 107 98 90 108 110 114 111 100 101 105 109 105 99 80 38 43 84 94 102 281 351 301 296 281 273 275 271 263 276 264 278 285 309 315 310 306 310 305 309 282 260 274 302 303 298 301 300 297 297 292 283 278 291 303 293 290 301 305 302 301 302 303 303 301 302 306 310 316 321 315
39 64 87 99 96 101 101 114 107 110 105 104 114 124 124 105 83 69 13 8 170 191 106 116 356 260 265 296 301 293 302 307 278 235 298 307 318 305 305 303 311 310 305 274 249 289 301 310 299 298 306 302 259 258 265 277 297 296 301 300 298 296 292 295 295 293 295 299 303 309 313 317 323 320
41 37 44 70 85 94 110 105 103 104 105 109 117 113 97 96 91 72 57 41 7 2 2 352 4 349 350 350 339 325 320 310 305 258 266 283 274 298 306 305 313 313 310 262 329 309 308 315 311 315 316 307 303 278 270 291 308 297 285 281 285 285 287 290 292 290 291 295 302 307 308 312 323 320
53 58 62 61 74 79 73 64 65 71 88 100 100 100 96 103 92 159 47 80 63 348 15 296 320 302 310 318 320 315 315 314 311 303 281 262 264 277 293 301 298 290 293 304 315 300 301 303 303 316 302 303 304 308 301 296 283 269 274 276 266 284 288 292 289 285 288 293 299 299 298 306 323 322
121 111 87 76 74 84 83 82 79 83 89 98 99 95 109 108 116 114 7 29 30 7 350 341 335 323 324 315 312 307 308 305 306 301 294 284 259 264 277 297 295 290 290 294 298 301 298 304 299 303 296 287 288 296 296 297 295 271 269 268 273 278 279 280 284 287 290 291 291 290 294 306 315 323
60 69 96 89 92 97 99 99 96 86 81 76 78 72 75 70 59 47 48 16 9 357 353 334 320 310 306 311 310 307 306 303 298 293 289 286 280 257 252 268 290 293 292 296 300 293 293 292 295 298 296 295 291 294 299 296 294 290 277 268 269 270 268 276 285 286 288 294 297 297 300 303 300 311
137 114 100 104 92 83 83 79 78 76 70 65 60 62 63 63 66 63 48 31 18 355 330 317 305 304 305 307 306 302 299 295 290 289 287 285 279 274 270 271 274 278 286 291 290 286 283 283 286 286 290 291 291 293 286 291 292 292 281 272 264 256 257 266 273 278 284 292 292 295 291 281 287 298
125 125 128 99 87 84 83 80 76 73 73 79 75 75 73 67 57 51 37 24 6 331 324 321 313 307 301 300 305 308 309 304 297 297 294 288 285 283 291 288 283 281 284 287 285 279 275 277 282 277 279 287 287 287 290 284 285 289 292 295 291 286 280 274 274 276 278 277 280 285 292 296 295 306
110 106 100 96 94 94 91 89 85 79 78 76 70 64 60 57 48 44 27 11 352 347 333 317 312 308 313 314 308 310 308 297 299 302 309 303 296 293 282 267 271 274 275 271 275 272 273 274 278 281 279 277 278 280 281 286 291 290 289 293 291 292 290 273 267 266 271 274 276 285 286 295 292 284
100 99 99 99 98 94 95 87 75 79 73 69 65 59 54 47 44 27 20 358 357 332 328 323 319 319 318 318 317 312 310 313 316 317 314 315 313 313 312 311 304 292 264 251 260 261 260 260 260 274 280 278 276 280 282 287 286 287 285 279 287 292 278 277 273 269 259 274 284 280 278 255 267 280
93 87 92 99 99 94 86 85 83 74 57 54 38 28 34 36 21 21 6 349 330 335 332 326 320 319 318 317 318 323 322 318 318 322 318 315 312 311 311 309 305 304 293 273 252 249 256 255 257 265 277 281 280 277 283 283 284 287 284 278 276 278 291 292 287 285 296 302 296 281 263 251 257 247
102 102 95 83 54 65 57 54 39 37 45 53 33 17 18 8 360 340 327 312 301 287 290 314 323 323 324 325 325 321 321 320 320 322 316 312 308 305 303 299 297 297 298 300 297 271 246 252 269 279 271 275 278 282 282 280 280 283 284 281 277 276 271 276 281 278 278 282 284 276 266 240 261 259
88 91 85 79 64 55 66 48 45 24 24 9 10 8 348 349 336 325 330 332 315 300 314 333 330 328 325 322 316 319 321 318 309 295 292 294 290 293 287 282 285 293 297 299 298 297 294 294 274 263 271 271 270 272 277 280 275 276 278 281 282 277 272 264 264 273 280 275 272 279 285 260 235 251
100 88 93 84 91 79 70 62 40 17 360 347 348 340 331 329 328 322 311 299 291 303 302 312 320 316 313 313 314 310 306 302 298 295 285 291 290 289 289 290 290 290 289 292 297 298 302 298 293 285 274 266 259 255 259 267 273 277 273 278 277 279 276 273 269 270 270 266 274 281 278 279 243 221
103 115 106 97 84 81 82 80 48 348 350 325 322 321 320 314 308 299 299 294 304 311 313 314 312 309 311 308 305 304 303 301 300 299 290 283 286 284 288 291 292 293 294 293 293 294 293 295 297 296 295 294 291 279 230 233 264 267 274 271 273 272 277 273 273 272 269 271 257 260 272 275 273 237
100 113 120 117 118 113 91 129 326 293 284 304 313 312 328 319 306 303 305 308 313 317 319 323 321 314 309 304 306 306 303 298 296 297 301 297 293 290 286 283 285 287 286 286 288 289 289 291 290 293 298 300 300 297 295 212 224 252 261 270 276 275 274 280 276 274 273 270 253 244 255 265 276 222
120 116 123 137 149 139 137 146 232 275 289 306 313 310 301 303 306 304 298 297 303 310 314 314 312 312 311 309 306 299 295 299 301 303 299 295 289 288 290 289 284 285 287 286 280 276 275 281 280 280 285 288 288 286 286 292 231 236 253 264 275 274 281 285 287 285 269 274 283 248 243 255 271 356
135 135 134 141 155 156 141 180 187 286 316 319 312 313 302 301 298 299 303 312 322 324 322 321 316 311 308 304 301 300 301 301 301 300 299 296 296 294 291 291 292 290 289 288 287 282 269 265 268 268 269 275 284 284 294 294 294 278 284 256 274 287 293 297 286 276 293 304 294 308 294 242 69 47
126 141 151 152 154 152 158 203 180 272 306 325 324 317 306 301 304 311 325 328 328 321 317 318 315 311 306 303 301 302 304 305 303 300 298 295 292 291 291 290 290 289 289 290 289 286 278 262 262 263 259 265 268 277 288 292 290 286 275 245 263 282 275 275 273 272 289 295 335 32 47 62 83 77
128 129 141 144 149 165 189 185 198 244 297 313 307 302 302 310 321 322 323 326 322 319 318 314 307 306 302 302 304 302 299 297 297 295 294 293 290 287 287 286 286 291 291 289 290 287 280 268 258 258 256 251 259 267 274 278 282 276 270 262 242 233 253 256 257 275 285 238 186 155 126 116 73 355
127 126 138 139 150 167 164 182 251 303 319 309 305 305 321 320 321 320 322 321 325 326 321 308 301 306 303 304 304 303 299 298 297 296 293 292 288 285 284 286 287 283 283 284 282 284 281 275 264 254 253 265 268 278 278 268 270 272 271 261 275 257 258 245 247 240 238 166 171 167 151 126 109 92
131 132 144 148 144 152 122 126 284 320 313 310 309 327 325 321 317 316 313 318 322 313 306 304 305 309 309 307 306 304 300 299 299 296 291 292 292 289 285 283 281 285 282 284 286 283 281 281 281 277 269 264 264 256 262 260 269 281 285 295 299 333 328 281 229 220 192 168 169 155 122 104 109 104
128 138 150 159 119 120 103 236 280 310 309 312 335 335 323 326 330 333 328 322 321 318 311 308 309 308 308 310 310 308 302 295 294 294 293 291 289 290 293 290 283 281 279 280 279 279 283 285 282 279 273 259 254 242 257 269 279 288 294 297 323 12 16 33 74 95 94 93 86 122 174 179 157 169
138 141 142 128 112 108 194 247 325 322 318 342 335 324 334 337 330 325 323 320 319 315 312 309 309 308 309 310 310 306 302 300 295 296 297 298 294 292 290 287 285 283 281 281 287 289 292 298 288 275 275 268 258 243 254 269 282 286 290 312 71 71 68 30 54 61 61 41 22 21 63 43 8 32
138 139 132 122 136 208 228 280 340 343 350 350 345 342 336 330 324 319 318 316 314 314 312 310 309 308 309 310 311 308 303 302 301 296 294 292 290 293 293 290 292 292 291 290 291 295 302 307 308 297 263 264 255 253 268 272 282 295 290 121 104 82 50 25 59 71 56 52 20 38 78 85 90 93